{"data":{"norad_id":61964,"epoch":"2026-05-24T21:43:32.549376Z","epoch_age_seconds":83167,"freshness":"FRESH","line1":"1 61964U 24210F   26144.90523784  .00012561  00000+0  46500-3 0  9992","line2":"2 61964  42.9983  94.9088 0000197 109.8469 250.2404 15.27593428 86732","mean_motion":15.27593428,"eccentricity":1.97e-5,"inclination_deg":42.9983,"raan_deg":94.9088,"arg_perigee_deg":109.8469,"mean_anomaly_deg":250.2404,"bstar":0.000465,"rev_number":8673,"period_min":94.265920080929,"perigee_km":482.8737234975,"apogee_km":483.14405264549,"semimajor_km":6861.1458880715,"source":"CELESTRAK","updated_at":"2026-05-25T13:38:19.492057Z"}}